EWG799 EGKK-EDDL

Flight info

Callsign EWG799
Flight time 0h 56m
Altitude 33000
Route DVR L9 KONAN DCT KOK UL607 SPI Y862 KENUM M170 NVO T857 BIKMU BIKMU1A
Aircraft A320/M-SDE3FGHIRWY/LB1

Departure

Time 2026-05-04 17:00
Airport London Gatwick Airport (EGKK)

Arrival

Time 2026-05-04 17:56
Airport Düsseldorf Airport (EDDL)
Time Latitude Longitude Altitude Speed Heading
2026-05-04 16:06 51.15890 -0.16774 214 ft 0 kts 208°
2026-05-04 16:38 51.15898 -0.16768 205 ft 2 kts 208°
2026-05-04 16:39 51.15920 -0.16705 213 ft 2 kts 275°
2026-05-04 16:39 51.15924 -0.16653 207 ft 2 kts 308°
2026-05-04 16:40 51.15921 -0.16647 214 ft 0 kts 314°
2026-05-04 16:43 51.15954 -0.16709 205 ft 5 kts 303°
2026-05-04 16:43 51.15977 -0.16892 211 ft 15 kts 260°
2026-05-04 16:43 51.15915 -0.17045 211 ft 18 kts 218°
2026-05-04 16:44 51.15723 -0.17809 205 ft 23 kts 257°
2026-05-04 16:45 51.15647 -0.18338 208 ft 22 kts 257°
2026-05-04 16:46 51.15600 -0.18700 215 ft 17 kts 253°
2026-05-04 16:46 51.15403 -0.18780 205 ft 23 kts 168°
2026-05-04 16:47 51.15126 -0.18798 208 ft 16 kts 276°
2026-05-04 16:47 51.15073 -0.19195 214 ft 22 kts 259°
2026-05-04 16:48 51.14962 -0.19992 205 ft 28 kts 257°
2026-05-04 16:48 51.14919 -0.20297 205 ft 29 kts 257°
2026-05-04 16:49 51.14834 -0.20896 205 ft 0 kts 257°
2026-05-04 16:50 51.14821 -0.20986 209 ft 9 kts 257°
2026-05-04 16:51 51.14819 -0.21001 205 ft 5 kts 257°
2026-05-04 16:51 51.14804 -0.21101 208 ft 10 kts 256°
2026-05-04 16:51 51.14755 -0.21367 214 ft 18 kts 243°
2026-05-04 16:52 51.14634 -0.21341 207 ft 0 kts 156°
2026-05-04 16:58 51.14533 -0.21214 211 ft 9 kts 117°
2026-05-04 16:58 51.14526 -0.21131 214 ft 6 kts 80°
2026-05-04 16:59 51.14598 -0.20595 217 ft 80 kts 77°
2026-05-04 17:00 51.15483 -0.13574 1672 ft 190 kts 79°
2026-05-04 17:00 51.16220 -0.06724 3266 ft 243 kts 78°
2026-05-04 17:01 51.16642 -0.00820 4236 ft 290 kts 91°
2026-05-04 17:01 51.16548 0.06034 5148 ft 336 kts 91°
2026-05-04 17:02 51.16397 0.13538 5642 ft 334 kts 92°
2026-05-04 17:02 51.16203 0.20992 5876 ft 338 kts 92°
2026-05-04 17:03 51.16125 0.24746 5973 ft 340 kts 90°
2026-05-04 17:03 51.16247 0.28530 6029 ft 343 kts 84°
2026-05-04 17:03 51.16477 0.36233 6025 ft 352 kts 88°
2026-05-04 17:04 51.16623 0.43826 6105 ft 328 kts 88°
2026-05-04 17:04 51.16732 0.50741 6229 ft 299 kts 89°
2026-05-04 17:05 51.16552 0.57033 7092 ft 272 kts 92°
2026-05-04 17:05 51.16349 0.62860 8010 ft 264 kts 94°
2026-05-04 17:06 51.16046 0.68777 8841 ft 271 kts 91°
2026-05-04 17:06 51.16140 0.71798 9266 ft 274 kts 86°
2026-05-04 17:07 51.15900 0.77801 10298 ft 272 kts 97°
2026-05-04 17:07 51.15761 0.79812 10531 ft 276 kts 96°
2026-05-04 17:07 51.15592 0.83948 11022 ft 283 kts 92°
2026-05-04 17:07 51.15555 0.87110 11417 ft 291 kts 91°
2026-05-04 17:08 51.15510 0.90418 11875 ft 307 kts 91°
2026-05-04 17:08 51.15364 0.97500 12966 ft 332 kts 92°
2026-05-04 17:08 51.15280 1.01233 13552 ft 341 kts 92°
2026-05-04 17:09 51.15194 1.05091 13924 ft 353 kts 92°
2026-05-04 17:09 51.15087 1.09067 14293 ft 366 kts 92°
2026-05-04 17:09 51.14968 1.13191 14687 ft 379 kts 92°
2026-05-04 17:10 51.14715 1.21856 15375 ft 401 kts 92°
2026-05-04 17:10 51.14241 1.34676 18175 ft 382 kts 94°
2026-05-04 17:11 51.14084 1.38846 18885 ft 382 kts 93°
2026-05-04 17:11 51.13936 1.43102 19468 ft 388 kts 93°
2026-05-04 17:11 51.13594 1.51591 21106 ft 385 kts 94°
2026-05-04 17:12 51.13416 1.55867 21616 ft 389 kts 94°
2026-05-04 17:12 51.13136 1.64518 22698 ft 392 kts 92°
2026-05-04 17:13 51.12955 1.77561 24417 ft 393 kts 90°
2026-05-04 17:14 51.12740 1.90562 26123 ft 391 kts 96°
2026-05-04 17:14 51.12418 1.94842 26705 ft 389 kts 98°
2026-05-04 17:14 51.11736 2.03384 27698 ft 390 kts 95°
2026-05-04 17:15 51.11569 2.07700 28152 ft 392 kts 92°
2026-05-04 17:15 51.11504 2.16369 29107 ft 391 kts 91°
2026-05-04 17:16 51.11272 2.25059 29877 ft 396 kts 94°
2026-05-04 17:16 51.10539 2.38243 30961 ft 402 kts 94°
2026-05-04 17:17 51.10347 2.42683 31315 ft 404 kts 93°
2026-05-04 17:17 51.10018 2.56081 32344 ft 409 kts 92°
2026-05-04 17:18 51.09842 2.60634 32519 ft 415 kts 95°
2026-05-04 17:18 51.08675 2.69751 32815 ft 428 kts 108°
2026-05-04 17:19 51.06815 2.78914 32949 ft 443 kts 108°
2026-05-04 17:19 51.04819 2.88357 33022 ft 458 kts 108°
2026-05-04 17:20 51.03053 2.98208 33194 ft 468 kts 105°
2026-05-04 17:20 51.01542 3.08159 33353 ft 456 kts 103°
2026-05-04 17:20 51.00823 3.13037 33218 ft 451 kts 104°
2026-05-04 17:21 50.99122 3.22483 33060 ft 439 kts 107°
2026-05-04 17:21 50.97270 3.31538 33068 ft 427 kts 109°
2026-05-04 17:22 50.95284 3.40535 33035 ft 437 kts 109°
2026-05-04 17:23 50.92306 3.59308 33025 ft 441 kts 102°
2026-05-04 17:23 50.90877 3.68806 32885 ft 444 kts 107°
2026-05-04 17:24 50.89881 3.73424 32969 ft 442 kts 111°
2026-05-04 17:24 50.86436 3.86785 33175 ft 439 kts 112°
2026-05-04 17:25 50.85338 3.91290 33135 ft 440 kts 109°
2026-05-04 17:26 50.82357 4.10059 33220 ft 439 kts 99°
2026-05-04 17:26 50.80362 4.24226 33077 ft 443 kts 112°
2026-05-04 17:27 50.77712 4.33002 33099 ft 442 kts 118°
2026-05-04 17:27 50.74663 4.41423 33212 ft 440 kts 121°
2026-05-04 17:28 50.71450 4.49684 33037 ft 445 kts 120°
2026-05-04 17:29 50.69535 4.63898 32925 ft 446 kts 96°
2026-05-04 17:29 50.68140 4.76600 33168 ft 440 kts 104°
2026-05-04 17:31 50.64562 5.00128 33063 ft 444 kts 104°
2026-05-04 17:32 50.59581 5.23128 33145 ft 442 kts 112°
2026-05-04 17:33 50.55547 5.41356 33085 ft 445 kts 106°
2026-05-04 17:34 50.52950 5.60381 33052 ft 445 kts 88°
2026-05-04 17:35 50.55348 5.74277 33213 ft 441 kts 65°
2026-05-04 17:35 50.58024 5.82981 33075 ft 445 kts 64°
2026-05-04 17:35 50.59416 5.87333 32952 ft 443 kts 62°
2026-05-04 17:36 50.60856 5.91584 32775 ft 438 kts 61°
2026-05-04 17:36 50.62330 5.95741 32652 ft 431 kts 60°
2026-05-04 17:36 50.63813 5.99813 32345 ft 426 kts 60°
2026-05-04 17:36 50.65269 6.03833 31970 ft 419 kts 61°
2026-05-04 17:37 50.66683 6.07823 31371 ft 418 kts 60°
2026-05-04 17:37 50.68130 6.11850 30404 ft 426 kts 60°
2026-05-04 17:37 50.69604 6.15957 29440 ft 433 kts 61°
2026-05-04 17:37 50.71043 6.20167 28514 ft 438 kts 62°
2026-05-04 17:38 50.72433 6.24465 27625 ft 441 kts 64°
2026-05-04 17:38 50.73643 6.28931 26672 ft 444 kts 70°
2026-05-04 17:38 50.74719 6.33553 25412 ft 454 kts 70°
2026-05-04 17:38 50.75726 6.38257 24753 ft 448 kts 71°
2026-05-04 17:39 50.77874 6.47302 23381 ft 430 kts 67°
2026-05-04 17:39 50.79056 6.51551 22455 ft 417 kts 64°
2026-05-04 17:39 50.80383 6.55581 21326 ft 410 kts 58°
2026-05-04 17:40 50.82050 6.59171 20068 ft 398 kts 48°
2026-05-04 17:40 50.84021 6.62104 19121 ft 389 kts 35°
2026-05-04 17:40 50.86401 6.64090 18488 ft 387 kts 19°
2026-05-04 17:40 50.89020 6.65107 17806 ft 387 kts
2026-05-04 17:41 50.91694 6.65577 17197 ft 386 kts
2026-05-04 17:41 50.94355 6.66053 16648 ft 383 kts
2026-05-04 17:41 50.96985 6.66575 16297 ft 376 kts
2026-05-04 17:41 50.99534 6.67159 16053 ft 365 kts
2026-05-04 17:42 51.02034 6.67774 15769 ft 363 kts
2026-05-04 17:42 51.04523 6.68319 15526 ft 360 kts
2026-05-04 17:42 51.06984 6.68873 15309 ft 355 kts
2026-05-04 17:42 51.09366 6.69772 15093 ft 351 kts 23°
2026-05-04 17:43 51.11432 6.71782 14925 ft 346 kts 40°
2026-05-04 17:43 51.12999 6.74645 14919 ft 344 kts 58°
2026-05-04 17:43 51.14315 6.77763 14922 ft 332 kts 53°
2026-05-04 17:43 51.15686 6.80672 14766 ft 325 kts 53°
2026-05-04 17:44 51.17031 6.83540 14463 ft 321 kts 53°
2026-05-04 17:44 51.18340 6.86392 14100 ft 317 kts 54°
2026-05-04 17:44 51.19600 6.89180 13629 ft 304 kts 54°
2026-05-04 17:44 51.20815 6.91844 13103 ft 291 kts 54°
2026-05-04 17:45 51.21986 6.94433 12658 ft 284 kts 54°
2026-05-04 17:45 51.23096 6.96910 12355 ft 273 kts 54°
2026-05-04 17:45 51.24176 6.99335 11959 ft 266 kts 54°
2026-05-04 17:45 51.25267 7.01747 11280 ft 270 kts 53°
2026-05-04 17:46 51.26386 7.04152 10480 ft 269 kts 52°
2026-05-04 17:46 51.27513 7.06520 9698 ft 266 kts 52°
2026-05-04 17:46 51.28614 7.08864 8931 ft 262 kts 53°
2026-05-04 17:46 51.29671 7.11202 8178 ft 258 kts 54°
2026-05-04 17:47 51.30701 7.13526 7466 ft 256 kts 54°
2026-05-04 17:47 51.31830 7.15711 6883 ft 253 kts 38°
2026-05-04 17:47 51.33362 7.16968 6391 ft 246 kts 17°
2026-05-04 17:47 51.34918 7.18025 5902 ft 242 kts 30°
2026-05-04 17:48 51.36385 7.19258 5488 ft 234 kts 23°
2026-05-04 17:48 51.37801 7.20250 5181 ft 227 kts 22°
2026-05-04 17:48 51.39245 7.21221 4839 ft 222 kts 22°
2026-05-04 17:48 51.40651 7.22079 4731 ft 210 kts 18°
2026-05-04 17:49 51.42019 7.22696 4548 ft 199 kts
2026-05-04 17:49 51.43346 7.22445 4593 ft 198 kts 334°
2026-05-04 17:49 51.44536 7.21381 4747 ft 196 kts 324°
2026-05-04 17:49 51.45692 7.20222 4904 ft 196 kts 324°
2026-05-04 17:50 51.46737 7.18776 5103 ft 204 kts 307°
2026-05-04 17:50 51.47446 7.16811 5215 ft 204 kts 281°
2026-05-04 17:50 51.47392 7.14604 5005 ft 201 kts 242°
2026-05-04 17:50 51.46542 7.12848 4737 ft 201 kts 220°
2026-05-04 17:51 51.45450 7.11440 4511 ft 203 kts 222°
2026-05-04 17:51 51.44524 7.09714 4323 ft 205 kts 231°
2026-05-04 17:51 51.43607 7.07982 4181 ft 203 kts 225°
2026-05-04 17:51 51.42630 7.06365 4047 ft 201 kts 226°
2026-05-04 17:52 51.41760 7.04619 3882 ft 198 kts 235°
2026-05-04 17:52 51.41042 7.02837 3837 ft 182 kts 233°
2026-05-04 17:52 51.40310 7.01257 3807 ft 174 kts 230°
2026-05-04 17:52 51.39550 6.99755 3732 ft 174 kts 228°
2026-05-04 17:53 51.38799 6.98183 3544 ft 180 kts 233°
2026-05-04 17:53 51.38073 6.96555 3487 ft 179 kts 233°
2026-05-04 17:53 51.37360 6.94908 3334 ft 183 kts 234°
2026-05-04 17:53 51.36662 6.93199 3226 ft 183 kts 236°
2026-05-04 17:54 51.35878 6.91614 3149 ft 181 kts 221°
2026-05-04 17:54 51.35046 6.90103 2894 ft 185 kts 234°
2026-05-04 17:54 51.34307 6.88389 2439 ft 191 kts 234°
2026-05-04 17:54 51.33565 6.86599 2016 ft 194 kts 235°
2026-05-04 17:55 51.32821 6.84836 1698 ft 187 kts 230°
2026-05-04 17:55 51.31975 6.83335 1398 ft 174 kts 223°
2026-05-04 17:55 51.31179 6.81960 1043 ft 166 kts 227°
2026-05-04 17:55 51.30482 6.80481 564 ft 164 kts 227°
2026-05-04 17:56 51.29795 6.79066 279 ft 156 kts 230°
2026-05-04 17:56 51.29172 6.77759 163 ft 141 kts 230°
2026-05-04 17:56 51.29042 6.77481 127 ft 24 kts 234°
2026-05-04 17:56 51.28897 6.77168 130 ft 37 kts 232°
2026-05-04 17:57 51.28747 6.76844 132 ft 35 kts 233°
2026-05-04 17:57 51.28600 6.76535 127 ft 36 kts 232°
2026-05-04 17:57 51.28444 6.76218 126 ft 36 kts 231°